Details for Lufthansa at EDDF




Go Back


Latest METAR
Local Time

EDDF 250420Z 05007KT 010V080 7000 BKN007 16/15 Q1018 NOSIG

25/05/2018, 06:45:26

Description
Results
Lufthansa Logo
Number of Pilots based at EDDF
0 Pilots Based here
Number of Lufthansa Flights Departed from EDDF
9 Flights Departed
Number of Lufthansa Flights Arrived at EDDF
8 Flights Arrived
Number of Lufthansa Schedules Departing from EDDF
638 Schedules
Number of Lufthansa Schedules Arriving at EDDF
626 Schedules
Number of Lufthansa Schedules Departing from EDDF availible today
448 Schedules Today
Number of Lufthansa Schedules Arriving at EDDF availible today
452 Schedules Today
Average Landing Rate at EDDF
-239 fpm
Lufthansa Average Landing Rate at EDDF
-294 fpm
Total Fuel Purchased at EDDF by Lufthansa
293,304.66 kgs / 646,619.45 lbs

Pilots Based at EDDF


Pilot ID
Pilot Name
Pilot Rank
No. of Flights
No. of Flying Hours
There are no pilots assigned to this hub!   Will you be the first?
Content